Starlink 11204

operational
NORAD ID: 60931 Int'l Des: 2024-155 Owner: SPXS Country: US Constellation: starlink
LEOCIRCULAR

Über Starlink 11204

Beschreibung wird geladen...

Live-Position

3D-Globus wird geladen...

Nächste Überflüge

Höhenverlauf

Altitude vs Time

uPlot chart will show altitude changes over time

Zweizeiliger Elementsatz

1 60931U 24155H 25259.03972848 -.00001162 00000-0 -47360-5 0 9997
2 60931 53.1592 122.0687 0001044 66.3937 293.7191 15.69708598 60977
Epoch: 16. Sept. 2025 • Age: 32 hours

Aktueller Status

Höhe 372.4 km
Geschwindigkeit 7.69 km/s
Subsatellitenpunkt -37.88°S, 48.91°W
Startdatum 31. Aug. 2024
Alter 1 years
Typ internet

Technische Details

Klassifizierung Payload
Masse 960.00 kg
Trockenmasse 910.00 kg
Gesamtmasse 960.00 kg
Länge 0.30 m
Durchmesser 4.10 m
Spannweite 29.00 m
Form Box + pan
Hersteller SPXS
Bus-Typ Starlink V2MD
Phasenstatus In Orbit
Besitzer/Staat SPXS/US

Große Konstellationen

Loading constellations...